Location: ?astrovice
(49.6513°N, 14.9287°E)
Time: 11:05:02
(UTC+00:00)

Cosmos 2360 Rocket - Pass Details

Date: 09 April 2020
Orbit: 834 x 845 km, 71.0° (Epoch: 25 May)

Event Time Altitude Azimuth Distance (km) Brightness Sun altitude
Rises 21:29:34 0° 334° (NNW) 3,395 6.6 -28.9°
Reaches altitude 10° 21:32:20 10° 345° (NNW) 2,458 5.5 -29.1°
Maximum altitude 21:37:15 30° 46° (NE) 1,476 3.6 -29.5°
Enters shadow 21:37:55 29° 58° (ENE) 1,499 3.5 -29.5°
